New Rooks County (RCP)
Stockton, KS
Field Elevation: 1999
Lat: 39°20.80N  Long: 99°18.28W
CTAF/Unicom Freq: 122.9000
   
    
Weather Advisories
8/31/2014 04:31 Z
Altimeter 29.85" Hg
Wind 160° @ 9 KT
Gusts --
Visibility 10 SM
Temperature 24° C (75° F)
Dewpoint 14° C (57° F)
Relative Humidity 53%
Density Altitude 3,600 feet
Condensation Altitude 7,300 feet
  Wind and Runways
Indicated Runway = 18
History
 
 
More Info
All DigiWx sites map
NOAA Forecast
 
Airport IQ 5010
(FLV) Sherman Airfield
(K68) Garnett Municipal Airport
 
about DigiWx
 
FAA Disclaimer: The data displayed is for advisory purposes only and is not to be used for flight planning or operations. For official data, please call (not available) to hear the current automated AWOS voice message.
  METAR RCP 310431Z AUTO 16009KT 10SM 24/14 A2985